Location: Debolt
(55.2626°N, 118.0981°W)
Time: 11:43:31
(UTC+00:00)

Oscar 11 - Visible Passes

Search period start: 05 December 2023 00:00
Search period end: 15 December 2023 00:00
Orbit: 605 x 617 km, 97.7° (Epoch: 04 December)

Date Brightness Start Highest point End Pass type
(mag) Time Alt. Az. Time Alt. Az. Time Alt. Az.
05 Dec 9.6 12:48:13 10° N 12:48:24 11° N 12:48:24 11° N visible
06 Dec 9.6 13:02:54 10° N 13:03:02 11° N 13:03:02 11° N visible
07 Dec 9.8 00:04:24 10° SW 00:07:38 21° W 00:10:54 10° NW visible
07 Dec 9.5 13:17:38 10° N 13:17:40 10° N 13:17:40 10° N visible
08 Dec 9.9 00:19:45 10° SW 00:22:23 16° W 00:25:02 10° NW visible
09 Dec 10.2 00:35:31 10° WSW 00:37:10 12° W 00:38:49 10° WNW visible
14 Dec 9.8 00:10:41 10° SW 00:13:42 18° W 00:16:44 10° NW visible
